[[{"header":{"parameterUnit":"m.s-1","parameterCategory":1,"la1":30.2991,"la2":30.254,"lo1":-89.0895,"lo2":-89.0444,"dy":0.0017,"dx":0.0017,"nx":28,"ny":28,"refTime":"2025-01-06T09:00:00:Z","depth":0,"parameterNumber":2,"parameterNumberName":"U-component_of_WINDS"},"data":[0,0,0,0,0,0,0,0,0,0,0,0,0,0,0,0,0,0,0,0,0,0,0,0,0,0,0,0,0,0,0,0,0,0,0,0,0,0,0,0,0,0,0,0,0,0,0,0,0,0,0,0,0,0,0,0,0,0,1.3122,1.3122,0,1.3092,1.3092,1.3092,1.3086,1.3086,1.3086,1.3086,1.3053,1.3052,1.305,0,0,0,0,0,0,0,0,0,0,0,0,0,1.3172,1.3171,1.3122,1.3122,1.3121,1.3092,1.3092,1.3092,1.3086,1.3086,1.3086,1.3087,1.3053,1.3052,1.305,0,0,0,0,0,0,0,0,0,0,0,0,0,1.3147,1.3171,1.3122,1.3115,1.3114,1.3093,1.3092,1.3091,1.3086,1.3086,1.3086,1.3087,1.3053,1.3052,1.305,1.3033,0,0,1.3045,1.3044,0,0,0,0,0,0,0,0,1.3148,1.3145,1.3116,1.3116,1.3114,1.3093,1.3097,1.3072,1.3086,1.3096,1.3086,1.3087,1.3066,1.3063,1.3056,1.3031,1.3029,1.3045,1.3044,1.3043,1.3043,0,0,0,0,0,0,0,1.315,1.3146,1.311,1.3116,1.3115,1.3113,1.3109,1.3092,1.3079,1.3095,1.3095,1.3092,1.3065,1.3058,1.3056,1.3029,1.3045,1.3043,1.3042,1.3042,1.2988,1.2988,0,0,0,0,0,0,1.3153,1.3148,1.3111,1.3109,1.3133,1.3111,1.3108,1.31,1.3079,1.3077,1.3091,1.3092,1.3061,1.3058,1.3054,1.3033,1.3043,1.3042,1.3041,1.2989,1.2988,1.2988,0,0,0,0,0,0,1.3154,1.315,1.3112,1.3128,1.3123,1.311,1.3101,1.3099,1.3092,1.3076,1.3074,1.3087,1.3061,1.3057,1.3038,1.3031,1.3041,1.3039,1.2989,1.2989,1.2988,1.2989,0,0,0,0,0,0,1.3156,1.3151,1.3144,1.3128,1.3123,1.3097,1.31,1.3098,1.3089,1.3089,1.3071,1.3069,1.3061,1.3041,1.3037,1.3029,1.3038,1.299,1.2989,1.2988,1.2989,1.2988,1.2988,0,0,0,0,0,1.3158,1.3145,1.3144,1.3139,1.3114,1.3097,1.3094,1.3086,1.3089,1.3082,1.3072,1.3069,1.3033,1.3039,1.3034,1.3026,1.299,1.2989,1.2988,1.299,1.2989,1.2988,0,0,0,0,0,0,1.3158,1.3142,1.3141,1.3123,1.3112,1.3096,1.3087,1.3085,1.3071,1.3072,1.3062,1.3058,1.304,1.3031,1.3038,1.3009,1.3012,1.301,1.3015,1.3013,1.3012,1.3014,1.3037,0,0,0,0,0,1.3157,1.3145,1.3131,1.3116,1.3111,1.31,1.3092,1.3088,1.3075,1.307,1.3058,1.3046,1.3031,1.3022,1.3008,1.2989,1.2985,1.2981,1.298,1.2979,1.2977,1.2967,1.2965,1.2985,1.2985,1.2985,0,0,1.3152,1.3142,1.3135,1.3116,1.3107,1.3094,1.3096,1.3082,1.3072,1.3067,1.3049,1.3041,1.3026,1.3007,1.2998,1.2999,1.2971,1.2978,1.2978,1.2976,1.2966,1.2964,1.2962,1.2984,1.2984,1.2984,0,0,1.3138,1.3129,1.3116,1.3107,1.3094,1.3087,1.3084,1.3069,1.3064,1.3046,1.3043,1.3031,1.3006,1.2996,1.2987,1.2971,1.2968,1.2967,1.2962,1.2952,1.295,1.2948,1.2942,1.294,1.2965,1.2965,1.2965,0,1.3133,1.3115,1.3109,1.3096,1.3088,1.3085,1.3071,1.3062,1.3044,1.3039,1.3041,1.3011,1.3001,1.298,1.2976,1.2969,1.2965,1.2968,1.2951,1.2949,1.2948,1.2942,1.294,1.2965,1.2965,1.2965,1.2965,0,1.311,1.3098,1.3089,1.3073,1.3064,1.3051,1.3043,1.3034,1.3031,1.3024,1.3006,1.2994,1.2978,1.2973,1.2969,1.2952,1.2953,1.2953,1.2956,1.2946,1.294,1.2938,1.2965,1.2965,1.2965,1.2965,0,0,1.3093,1.3077,1.3073,1.3067,1.3052,1.3042,1.3029,1.3015,1.3007,1.2996,1.2984,1.2965,1.2965,1.2956,1.2951,1.2942,1.293,1.2943,1.2943,1.2941,1.291,1.2909,1.2907,1.2929,1.2928,1.2928,1.2911,0,1.3076,1.3054,1.3049,1.3029,1.3017,1.3015,1.3003,1.2993,1.2987,1.2975,1.2968,1.2954,1.2956,1.2951,1.2942,1.2933,1.2924,1.2935,1.2917,1.2916,1.2919,1.2904,1.2903,1.2888,1.2909,1.2909,1.2908,0,1.3053,1.3043,1.3022,1.301,1.3005,1.2995,1.2982,1.2972,1.296,1.2956,1.2947,1.2943,1.2929,1.2934,1.2914,1.2922,1.2914,1.2909,1.2908,1.2905,1.2911,1.29,1.2883,1.288,1.2905,1.2905,1.2905,0,1.3042,1.3023,1.3008,1.3002,1.2989,1.2982,1.2976,1.2965,1.2957,1.2946,1.294,1.2927,1.2919,1.2909,1.2902,1.2906,1.2883,1.2887,1.2878,1.2878,1.2872,1.2872,1.2853,1.2869,1.2869,1.2869,1.2869,0,1.3023,1.301,1.3003,1.2994,1.2979,1.2974,1.296,1.2954,1.2945,1.2934,1.2931,1.2921,1.2913,1.2901,1.2896,1.288,1.2877,1.2873,1.2871,1.2872,1.2873,1.2866,1.2867,1.2869,1.2869,1.2869,1.2869,0,1.3007,1.3002,1.2986,1.2975,1.2972,1.2962,1.2953,1.2943,1.2938,1.2925,1.2921,1.2912,1.2899,1.2891,1.2874,1.287,1.2853,1.2852,1.2857,1.2856,1.2847,1.2848,1.2822,1.2818,1.2838,1.2838,1.2838,0,1.2995,1.2985,1.2974,1.2967,1.2962,1.2951,1.2943,1.2938,1.293,1.2918,1.291,1.2897,1.2886,1.2865,1.2856,1.2843,1.2842,1.2834,1.2839,1.2841,1.2841,1.2841,1.284,1.2832,1.2832,1.2832,1.2832,0,1.2973,1.2972,1.2961,1.2951,1.2942,1.2933,1.2924,1.2919,1.2912,1.2904,1.2891,1.2883,1.2866,1.2853,1.284,1.2833,1.2831,1.283,1.2827,1.2828,1.2831,1.2828,1.2853,1.283,1.283,1.2831,1.2831,1.2831,1.2958,1.2949,1.2941,1.293,1.2923,1.2915,1.2906,1.2901,1.289,1.2877,1.2875,1.2862,1.2852,1.2834,1.2827,1.2816,1.2817,1.2813,1.2812,1.2811,1.281,1.2834,1.2814,1.2814,1.2814,1.2814,1.2814,0,1.2935,1.293,1.292,1.2909,1.29,1.2902,1.2892,1.2885,1.2873,1.2865,1.2855,1.284,1.2828,1.282,1.2807,1.28,1.2799,1.2797,1.2796,1.2795,1.281,1.2813,1.2798,1.2798,1.2798,1.2798,1.2798,1.2798,1.2922,1.2908,1.2906,1.2889,1.2884,1.2871,1.2866,1.2859,1.2852,1.2836,1.2827,1.2822,1.2814,1.2801,1.279,1.2788,1.2783,1.2781,1.2778,1.2792,1.2794,1.2795,1.2798,1.278,1.278,1.2764,1.2764,1.2763]},{"header":{"parameterUnit":"m.s-1","parameterCategory":1,"la1":30.2991,"la2":30.254,"lo1":-89.0895,"lo2":-89.0444,"dy":0.0017,"dx":0.0017,"nx":28,"ny":28,"refTime":"2025-01-06T09:00:00:Z","depth":0,"parameterNumber":3,"parameterNumberName":"V-component_of_WINDS"},"data":[0,0,0,0,0,0,0,0,0,0,0,0,0,0,0,0,0,0,0,0,0,0,0,0,0,0,0,0,0,0,0,0,0,0,0,0,0,0,0,0,0,0,0,0,0,0,0,0,0,0,0,0,0,0,0,0,0,0,-8.2168,-8.217,0,-8.236,-8.2362,-8.2364,-8.2267,-8.2262,-8.2257,-8.2252,-8.2442,-8.2452,-8.2461,0,0,0,0,0,0,0,0,0,0,0,0,0,-8.1712,-8.1721,-8.2168,-8.217,-8.2173,-8.2359,-8.2362,-8.2365,-8.2267,-8.2261,-8.2255,-8.2249,-8.2439,-8.245,-8.2462,0,0,0,0,0,0,0,0,0,0,0,0,0,-8.1907,-8.1724,-8.2167,-8.2147,-8.2147,-8.2359,-8.2362,-8.2365,-8.2269,-8.2261,-8.2254,-8.2247,-8.2435,-8.2449,-8.2464,-8.2705,0,0,-8.2509,-8.2515,0,0,0,0,0,0,0,0,-8.1896,-8.1924,-8.2147,-8.2149,-8.2149,-8.2282,-8.2271,-8.2479,-8.2271,-8.2222,-8.2252,-8.2243,-8.2394,-8.2412,-8.2464,-8.2714,-8.2722,-8.251,-8.2519,-8.2525,-8.2529,0,0,0,0,0,0,0,-8.1883,-8.1915,-8.2243,-8.2151,-8.2152,-8.2126,-8.2146,-8.231,-8.2348,-8.2226,-8.2219,-8.2244,-8.2393,-8.245,-8.2468,-8.2725,-8.2509,-8.2522,-8.2531,-8.2537,-8.3183,-8.319,0,0,0,0,0,0,-8.1871,-8.1905,-8.2237,-8.2249,-8.2002,-8.2141,-8.2162,-8.2247,-8.2346,-8.2354,-8.225,-8.2238,-8.2429,-8.2451,-8.2474,-8.2764,-8.2525,-8.2539,-8.2547,-8.3174,-8.3184,-8.3193,0,0,0,0,0,0,-8.1862,-8.1902,-8.223,-8.2075,-8.2115,-8.2156,-8.2252,-8.2254,-8.2311,-8.2364,-8.237,-8.2302,-8.2424,-8.2454,-8.2649,-8.2769,-8.2545,-8.2559,-8.3164,-8.3177,-8.3189,-8.3346,0,0,0,0,0,0,-8.1849,-8.1899,-8.1993,-8.2078,-8.2124,-8.2404,-8.2259,-8.2264,-8.2338,-8.2324,-8.2415,-8.2422,-8.242,-8.2628,-8.2664,-8.2786,-8.257,-8.3154,-8.317,-8.3185,-8.333,-8.3362,-8.339,0,0,0,0,0,-8.1833,-8.2028,-8.1998,-8.2039,-8.2242,-8.2411,-8.2436,-8.2432,-8.2348,-8.2441,-8.2475,-8.2419,-8.275,-8.2649,-8.2688,-8.2816,-8.3146,-8.3166,-8.3184,-8.3317,-8.3356,-8.3389,0,0,0,0,0,0,-8.1953,-8.2038,-8.2006,-8.2235,-8.2317,-8.2394,-8.2512,-8.2474,-8.258,-8.2563,-8.2551,-8.2572,-8.2775,-8.2815,-8.27,-8.3055,-8.2935,-8.2962,-8.3022,-8.306,-8.3089,-8.3076,-8.2582,0,0,0,0,0,-8.2006,-8.2138,-8.2205,-8.24,-8.2443,-8.2471,-8.2544,-8.2534,-8.2617,-8.2651,-8.2699,-8.278,-8.2902,-8.2983,-8.3098,-8.3335,-8.3353,-8.3442,-8.3472,-8.3496,-8.352,-8.3649,-8.3689,-8.3255,-8.3255,-8.3255,0,0,-8.2117,-8.218,-8.2264,-8.2425,-8.2487,-8.2623,-8.25,-8.2648,-8.2748,-8.2672,-8.2861,-8.2899,-8.2988,-8.3206,-8.3304,-8.3245,-8.3644,-8.352,-8.3539,-8.355,-8.3672,-8.3713,-8.375,-8.3268,-8.3266,-8.3264,0,0,-8.2389,-8.245,-8.2619,-8.2685,-8.2781,-8.2798,-8.2839,-8.2923,-8.2947,-8.3136,-8.3082,-8.3199,-8.341,-8.3476,-8.3538,-8.3835,-8.3787,-8.3873,-8.4028,-8.4154,-8.4188,-8.4218,-8.4325,-8.4363,-8.3896,-8.3897,-8.3897,0,-8.2514,-8.2718,-8.2711,-8.2864,-8.2937,-8.2876,-8.3047,-8.311,-8.3239,-8.3289,-8.3222,-8.3486,-8.3542,-8.3774,-8.3847,-8.3898,-8.3944,-8.3863,-8.4184,-8.4214,-8.4242,-8.4344,-8.4384,-8.3906,-8.3905,-8.3904,-8.3903,0,-8.2867,-8.3009,-8.3134,-8.3263,-8.3349,-8.351,-8.3526,-8.3614,-8.3596,-8.362,-8.3813,-8.3879,-8.4007,-8.406,-8.4044,-8.4291,-8.4252,-8.4185,-8.4063,-8.4294,-8.4389,-8.4428,-8.3921,-8.3917,-8.3914,-8.3912,0,0,-8.322,-8.3343,-8.3389,-8.3447,-8.3549,-8.3658,-8.3815,-8.3943,-8.4019,-8.4109,-8.424,-8.4421,-8.436,-8.4429,-8.4419,-8.4529,-8.4761,-8.4448,-8.445,-8.4505,-8.5038,-8.5089,-8.5134,-8.473,-8.4737,-8.4743,-8.503,0,-8.3499,-8.3778,-8.3777,-8.4034,-8.4165,-8.411,-8.4247,-8.4323,-8.435,-8.4463,-8.4491,-8.462,-8.4529,-8.4571,-8.4677,-8.4711,-8.4868,-8.4689,-8.4851,-8.4857,-8.4832,-8.5183,-8.5237,-8.5506,-8.5067,-8.5074,-8.5078,0,-8.3863,-8.3968,-8.4239,-8.4323,-8.4377,-8.4501,-8.4618,-8.4728,-8.4812,-8.4824,-8.4903,-8.4876,-8.5034,-8.4909,-8.5127,-8.5006,-8.5071,-8.5098,-8.5108,-8.5123,-8.4982,-8.5209,-8.5591,-8.5632,-8.5137,-8.5132,-8.5128,0,-8.4094,-8.4303,-8.4492,-8.4543,-8.4645,-8.4734,-8.478,-8.4858,-8.4935,-8.5035,-8.5085,-8.5202,-8.5267,-8.5358,-8.5362,-8.527,-8.5583,-8.5457,-8.5596,-8.5596,-8.5665,-8.5661,-8.6064,-8.5706,-8.5706,-8.5705,-8.5704,0,-8.4407,-8.4575,-8.4598,-8.4715,-8.4901,-8.4897,-8.5081,-8.5119,-8.5189,-8.531,-8.5268,-8.5382,-8.5382,-8.5498,-8.5502,-8.5683,-8.5711,-8.5724,-8.5724,-8.5729,-8.5728,-8.5773,-8.5754,-8.5716,-8.5713,-8.5711,-8.5709,0,-8.4698,-8.472,-8.4923,-8.5003,-8.5027,-8.5161,-8.5229,-8.5339,-8.5362,-8.5517,-8.5552,-8.5587,-8.5722,-8.5736,-8.5892,-8.5894,-8.6113,-8.6091,-8.6085,-8.6082,-8.6221,-8.6208,-8.6668,-8.6728,-8.633,-8.6334,-8.6337,0,-8.4897,-8.5025,-8.512,-8.52,-8.5252,-8.538,-8.5459,-8.5459,-8.5542,-8.5649,-8.5747,-8.5878,-8.5983,-8.62,-8.6238,-8.6357,-8.6339,-8.6492,-8.6356,-8.6358,-8.6342,-8.6335,-8.6348,-8.6518,-8.6523,-8.6526,-8.6529,0,-8.5248,-8.5252,-8.5369,-8.549,-8.5586,-8.568,-8.5768,-8.5835,-8.5846,-8.5942,-8.608,-8.6162,-8.6323,-8.6453,-8.657,-8.6615,-8.6575,-8.6572,-8.661,-8.6618,-8.6609,-8.6617,-8.6158,-8.6561,-8.6558,-8.6556,-8.6554,-8.6553,-8.5499,-8.5611,-8.5696,-8.5827,-8.5894,-8.5978,-8.6086,-8.6123,-8.6239,-8.6372,-8.6363,-8.6517,-8.6597,-8.6751,-8.6805,-8.6923,-8.6872,-8.6928,-8.6942,-8.6956,-8.6971,-8.659,-8.6944,-8.6943,-8.6942,-8.6942,-8.6941,0,-8.5849,-8.5901,-8.6021,-8.6148,-8.6251,-8.6205,-8.6301,-8.6389,-8.6526,-8.6605,-8.671,-8.687,-8.6996,-8.7044,-8.7167,-8.7253,-8.7237,-8.7285,-8.7279,-8.729,-8.7009,-8.6964,-8.7296,-8.7296,-8.7296,-8.7296,-8.7296,-8.7295,-8.6043,-8.623,-8.6245,-8.6465,-8.6515,-8.6667,-8.6725,-8.6802,-8.6866,-8.7046,-8.7152,-8.7184,-8.7251,-8.7378,-8.7492,-8.7502,-8.755,-8.7606,-8.7609,-8.7346,-8.731,-8.7276,-8.7234,-8.7616,-8.7617,-8.7881,-8.7883,-8.7885]}]]